�N����,����,�~����,�C��,���x,�C��,����,���ϕ���,�ő�u�ԕ���,�ő厞����,���˗�,�I�_���x,�n�����x,�ő啗���N��,DTYPE
"20/11/02","00:10",0.0,12.6,90.6,1016.8,295.2,0.7,1.1,290.3,0.00,11.1,15.0,"00:04:08",1
"20/11/02","00:20",0.0,12.7,90.7,1016.6,306.1,0.8,1.2,315.4,0.00,11.3,15.2,"00:11:44",1
"20/11/02","00:30",0.0,12.9,90.9,1016.8,317.7,1.2,1.7,323.0,0.00,11.5,15.1,"00:22:42",1
"20/11/02","00:40",0.0,13.1,91.2,1016.4,323.9,1.1,1.4,321.5,0.00,11.7,15.0,"00:39:04",1
"20/11/02","00:50",0.0,13.1,91.2,1016.1,286.1,0.7,1.1,297.3,0.00,11.7,15.2,"00:40:08",1
"20/11/02","01:00",0.0,13.1,91.3,1016.1,289.8,0.7,1.0,307.8,0.00,11.8,15.2,"00:55:20",1
"20/11/02","01:10",0.0,13.2,91.6,1016.4,294.0,1.0,1.4,326.7,0.00,11.9,15.3,"01:09:52",1
"20/11/02","01:20",0.0,13.6,91.7,1016.1,319.1,1.1,1.9,314.1,0.00,12.3,15.1,"01:11:52",1
"20/11/02","01:30",0.0,13.7,91.6,1016.1,291.7,0.6,1.3,272.6,0.00,12.4,15.4,"01:27:28",1
"20/11/02","01:40",0.0,13.7,91.7,1016.1,299.2,0.8,1.1,308.3,0.00,12.4,15.3,"01:35:52",1
"20/11/02","01:50",0.0,13.7,91.8,1016.6,295.6,0.5,0.9,340.9,0.00,12.4,15.3,"01:41:04",1
"20/11/02","02:00",0.0,13.6,91.8,1016.4,293.7,0.7,1.1,307.7,0.00,12.3,15.3,"01:54:16",1
"20/11/02","02:10",0.0,13.6,91.9,1016.4,307.1,1.1,1.6,327.0,0.00,12.3,15.2,"02:05:26",1
"20/11/02","02:20",0.0,13.6,91.9,1015.9,295.5,0.7,1.3,317.1,0.00,12.3,15.2,"02:10:24",1
"20/11/02","02:30",0.0,13.6,92.0,1015.9,309.6,1.1,1.4,307.1,0.00,12.4,15.2,"02:22:48",1
"20/11/02","02:40",0.0,13.6,92.1,1015.9,282.2,0.7,1.2,318.9,0.00,12.4,15.3,"02:31:04",1
"20/11/02","02:50",0.0,13.5,92.1,1015.6,297.8,1.0,1.6,307.8,0.00,12.3,15.3,"02:48:32",1
"20/11/02","03:00",0.0,13.8,92.2,1015.6,327.3,1.0,1.3,325.5,0.00,12.6,15.2,"02:51:04",1
"20/11/02","03:10",0.0,13.9,92.2,1015.4,292.1,1.1,1.4,310.5,0.00,12.7,15.4,"03:00:32",1
"20/11/02","03:20",0.0,14.0,92.2,1015.2,305.7,0.7,1.8,314.5,0.00,12.8,15.3,"03:11:28",1
"20/11/02","03:30",0.0,14.0,92.2,1014.9,306.1,1.1,1.6,320.1,0.00,12.8,15.3,"03:29:36",1
"20/11/02","03:40",0.0,14.0,92.2,1014.9,301.0,0.6,1.1,312.2,0.00,12.8,15.3,"03:30:24",1
"20/11/02","03:50",0.0,14.0,92.2,1014.9,289.9,0.7,1.0,299.0,0.00,12.8,15.4,"03:43:12",1
"20/11/02","04:00",0.0,14.0,92.3,1015.2,320.6,1.1,1.7,323.8,0.00,12.8,15.3,"03:59:44",1
"20/11/02","04:10",0.0,14.2,92.2,1014.9,321.8,1.0,1.8,319.2,0.00,13.0,15.6,"04:00:40",1
"20/11/02","04:20",0.0,14.2,92.2,1014.9,286.5,0.8,1.6,324.7,0.00,13.0,15.3,"04:17:04",1
"20/11/02","04:30",0.0,14.2,92.1,1014.5,3.8,0.3,1.0,288.6,0.00,13.0,15.4,"04:20:24",1
"20/11/02","04:40",0.0,14.1,92.2,1014.5,315.2,0.7,1.8,308.6,0.00,12.9,15.4,"04:37:28",1
"20/11/02","04:50",0.0,14.2,92.2,1015.2,317.9,1.1,1.7,316.7,0.00,13.0,15.4,"04:42:32",1
"20/11/02","05:00",0.0,14.2,92.1,1014.7,271.3,0.8,1.1,250.5,0.00,13.0,15.3,"04:52:32",1
"20/11/02","05:10",0.0,14.1,92.2,1014.5,286.0,0.7,1.1,289.6,0.00,12.9,15.4,"05:07:52",1
"20/11/02","05:20",0.0,14.0,92.2,1014.7,294.6,0.8,1.0,290.0,0.00,12.8,15.3,"05:11:20",1
"20/11/02","05:30",0.0,14.1,92.2,1014.7,318.1,1.0,1.8,324.9,0.00,12.9,15.4,"05:23:20",1
"20/11/02","05:40",0.0,14.1,92.2,1014.7,286.8,0.7,1.2,308.6,0.00,12.9,15.6,"05:38:32",1
"20/11/02","05:50",0.0,14.0,92.2,1014.2,306.0,1.1,1.8,317.3,0.00,12.8,15.4,"05:49:12",1
"20/11/02","06:00",0.0,14.0,92.3,1014.7,290.0,1.1,1.4,297.8,0.00,12.8,15.4,"05:50:24",1
"20/11/02","06:10",0.0,14.1,92.3,1014.2,266.0,0.5,1.6,269.7,0.00,12.9,15.3,"06:00:40",1
"20/11/02","06:20",0.0,14.1,92.4,1014.5,309.4,1.2,1.6,320.1,0.00,12.9,15.3,"06:15:04",1
"20/11/02","06:30",0.0,14.3,92.4,1014.9,307.1,1.1,1.6,312.6,0.00,13.1,15.4,"06:24:08",1
"20/11/02","06:40",0.0,14.5,92.4,1014.7,295.3,1.1,1.8,300.2,0.00,13.3,15.5,"06:33:44",1
"20/11/02","06:50",0.0,14.7,92.3,1014.7,301.8,1.0,2.4,327.5,0.00,13.5,15.5,"06:49:44",1
"20/11/02","07:00",0.0,14.8,92.3,1014.9,300.2,1.1,1.7,331.6,0.00,13.6,15.5,"06:50:08",1
"20/11/02","07:10",0.0,15.0,92.2,1015.2,301.0,1.3,2.6,322.1,0.00,13.8,15.6,"07:06:48",1
"20/11/02","07:20",0.0,15.2,92.1,1014.7,296.1,1.3,2.4,307.6,0.00,14.0,15.6,"07:12:56",1
"20/11/02","07:30",0.0,15.4,92.0,1014.7,279.5,1.0,2.1,235.6,0.01,14.1,15.6,"07:29:20",1
"20/11/02","07:40",0.0,15.7,91.9,1014.9,281.5,1.1,1.9,265.6,0.02,14.4,15.6,"07:37:36",1
"20/11/02","07:50",0.0,15.9,91.7,1015.4,310.4,1.5,2.1,326.9,0.03,14.6,15.7,"07:43:04",1
"20/11/02","08:00",0.0,16.0,91.2,1015.6,312.7,1.5,2.7,326.2,0.01,14.6,15.7,"07:58:24",1
"20/11/02","08:10",0.2,16.2,91.0,1015.6,323.6,1.2,2.0,319.8,0.01,14.8,15.7,"08:08:48",1
"20/11/02","08:20",0.2,15.8,90.7,1015.9,333.2,2.1,4.9,332.4,0.01,14.3,15.7,"08:19:46",1
"20/11/02","08:30",0.2,15.7,90.8,1015.6,335.1,1.7,2.9,341.2,0.01,14.2,15.6,"08:28:48",1
"20/11/02","08:40",0.2,15.6,91.0,1015.6,327.5,1.7,2.9,308.2,0.03,14.2,15.6,"08:39:08",1
"20/11/02","08:50",0.2,15.6,91.3,1015.6,339.2,2.1,4.0,339.9,0.05,14.2,15.8,"08:40:36",1
"20/11/02","09:00",0.2,15.5,91.5,1015.9,330.1,2.0,3.2,341.7,0.05,14.2,15.9,"08:54:18",1
"20/11/02","09:10",0.2,15.3,91.7,1016.1,326.1,2.0,4.0,341.1,0.02,14.0,16.0,"09:09:00",1
"20/11/02","09:20",0.4,15.2,92.0,1016.4,321.6,1.5,2.9,321.6,0.01,13.9,15.8,"09:14:54",1
"20/11/02","09:30",1.0,15.0,92.3,1015.9,350.0,1.1,2.1,343.6,0.01,13.8,15.7,"09:20:10",1
"20/11/02","09:40",0.6,15.0,92.4,1015.6,293.8,0.8,1.6,338.8,0.00,13.8,15.9,"09:31:28",1
"20/11/02","09:50",0.8,15.0,92.6,1015.4,306.7,1.1,1.4,331.6,0.01,13.9,15.9,"09:46:16",1
"20/11/02","10:00",0.8,15.2,92.8,1015.4,307.1,1.0,1.7,328.8,0.03,14.1,15.8,"09:56:32",1
"20/11/02","10:10",0.2,15.3,92.9,1015.4,270.6,0.6,1.1,268.6,0.02,14.2,15.9,"10:04:16",1
"20/11/02","10:20",0.6,15.4,93.0,1015.4,254.1,1.1,1.9,242.2,0.02,14.3,15.8,"10:13:52",1
"20/11/02","10:30",0.8,15.4,93.1,1015.4,259.0,0.8,1.6,257.6,0.02,14.3,15.7,"10:21:36",1
"20/11/02","10:40",0.6,15.6,93.3,1014.9,250.1,0.8,1.4,238.0,0.04,14.6,15.9,"10:36:08",1
"20/11/02","10:50",0.6,15.7,93.4,1015.4,256.3,0.8,1.4,260.3,0.05,14.7,16.1,"10:41:28",1
"20/11/02","11:00",0.6,15.8,93.5,1014.7,291.3,0.5,0.8,278.7,0.06,14.8,16.0,"10:50:16",1
"20/11/02","11:10",0.2,15.9,93.7,1014.7,246.2,0.7,1.6,237.5,0.07,14.9,16.0,"11:04:22",1
"20/11/02","11:20",0.2,16.0,93.6,1014.7,249.1,1.0,1.7,240.1,0.07,15.0,16.0,"11:10:58",1
"20/11/02","11:30",0.4,15.9,93.8,1014.2,240.2,0.7,1.4,236.2,0.05,14.9,16.2,"11:23:54",1
"20/11/02","11:40",0.2,16.1,93.8,1014.2,261.9,0.5,1.2,243.1,0.05,15.1,16.0,"11:32:20",1
"20/11/02","11:50",0.4,16.3,93.8,1014.0,239.9,0.5,1.1,260.3,0.05,15.3,16.2,"11:49:44",1
"20/11/02","12:00",0.2,16.4,93.9,1013.8,249.3,0.5,0.8,248.6,0.07,15.5,16.2,"11:50:20",1
"20/11/02","12:10",0.4,16.3,94.0,1013.8,248.9,0.8,1.2,246.9,0.07,15.4,16.3,"12:00:24",1
"20/11/02","12:20",0.2,16.3,93.9,1013.5,235.2,0.7,1.3,228.9,0.05,15.4,16.3,"12:17:08",1
"20/11/02","12:30",0.4,16.4,94.0,1013.0,224.1,0.6,1.2,224.7,0.03,15.5,16.5,"12:28:18",1
"20/11/02","12:40",0.4,16.3,94.1,1013.3,284.7,0.5,1.1,248.9,0.02,15.4,16.4,"12:33:52",1
"20/11/02","12:50",0.2,16.4,94.2,1012.8,332.2,0.6,1.6,347.0,0.04,15.5,16.5,"12:48:26",1
"20/11/02","13:00",0.4,16.5,94.3,1012.8,286.8,0.8,1.7,339.6,0.07,15.6,16.3,"12:53:12",1
"20/11/02","13:10",0.2,16.5,94.4,1012.3,233.8,1.0,1.9,235.7,0.02,15.6,16.5,"13:01:44",1
"20/11/02","13:20",0.4,16.4,94.5,1012.3,234.5,1.0,2.2,234.1,0.03,15.6,16.5,"13:10:40",1
"20/11/02","13:30",0.2,16.4,94.5,1012.1,234.9,0.7,2.0,207.5,0.01,15.6,16.4,"13:26:08",1
"20/11/02","13:40",0.4,16.3,94.6,1012.3,234.6,0.8,1.9,198.1,0.01,15.5,16.4,"13:32:24",1
"20/11/02","13:50",0.6,16.4,94.7,1011.9,248.0,0.3,1.2,291.8,0.01,15.6,16.5,"13:41:52",1
"20/11/02","14:00",0.2,16.3,94.8,1012.1,232.8,0.7,1.2,231.8,0.02,15.5,16.6,"13:57:20",1
"20/11/02","14:10",0.4,16.3,94.9,1012.1,227.9,0.6,1.4,213.0,0.02,15.5,16.5,"14:02:48",1
"20/11/02","14:20",0.4,16.2,94.9,1012.3,289.5,0.3,1.1,306.6,0.01,15.4,16.6,"14:13:52",1
"20/11/02","14:30",0.4,16.1,95.0,1011.9,330.7,0.5,1.2,329.4,0.00,15.3,16.5,"14:25:44",1
"20/11/02","14:40",0.2,16.2,95.1,1012.1,345.0,0.5,1.2,321.9,0.02,15.5,16.5,"14:38:48",1
"20/11/02","14:50",0.4,16.3,95.0,1012.3,311.8,0.6,1.2,330.3,0.02,15.5,16.4,"14:46:50",1
"20/11/02","15:00",0.2,16.2,95.0,1012.6,324.2,0.5,1.0,321.0,0.01,15.4,16.5,"14:54:48",1
"20/11/02","15:10",0.4,16.2,95.2,1012.1,198.2,0.3,0.9,97.9,0.00,15.5,16.7,"15:08:40",1
"20/11/02","15:20",0.2,16.1,95.2,1011.9,126.5,0.3,0.9,79.4,0.00,15.4,16.5,"15:14:00",1
"20/11/02","15:30",0.2,16.1,95.3,1011.4,195.1,0.6,1.2,129.9,0.00,15.4,16.5,"15:20:56",1
"20/11/02","15:40",0.2,16.0,95.3,1011.9,245.5,0.6,1.8,216.4,0.00,15.3,16.5,"15:31:52",1
"20/11/02","15:50",0.2,16.0,95.4,1012.3,326.4,0.8,1.1,318.5,0.00,15.3,16.6,"15:40:08",1
"20/11/02","16:00",0.2,16.0,95.4,1012.3,305.7,0.6,1.0,342.8,0.00,15.3,16.6,"15:50:08",1
"20/11/02","16:10",0.2,15.9,95.4,1012.1,277.6,0.5,0.9,317.9,0.00,15.2,16.4,"16:00:48",1
"20/11/02","16:20",0.4,15.9,95.5,1011.6,269.3,0.0,0.3,282.3,0.00,15.2,16.5,"16:16:48",1
"20/11/02","16:30",0.2,15.8,95.5,1011.9,278.9,0.2,0.8,293.7,0.00,15.1,16.3,"16:20:02",1
"20/11/02","16:40",0.2,15.8,95.5,1011.9,304.3,0.7,1.0,326.1,0.00,15.1,16.6,"16:37:20",1
"20/11/02","16:50",0.2,15.8,95.6,1011.9,300.2,0.7,1.0,318.3,0.00,15.1,16.4,"16:42:48",1
"20/11/02","17:00",0.0,15.7,95.6,1011.6,277.3,0.2,0.8,295.7,0.00,15.0,16.6,"16:50:08",1
"20/11/02","17:10",0.2,15.7,95.6,1011.2,327.2,0.5,1.0,325.6,0.00,15.0,16.6,"17:05:52",1
"20/11/02","17:20",0.0,15.7,95.7,1011.2,310.0,0.8,1.2,315.5,0.00,15.1,16.6,"17:14:56",1
"20/11/02","17:30",0.0,15.6,95.7,1011.6,286.3,0.5,0.9,310.9,0.00,15.0,16.5,"17:20:40",1
"20/11/02","17:40",0.2,15.6,95.8,1011.4,303.3,0.2,1.2,344.2,0.00,15.0,16.3,"17:39:44",1
"20/11/02","17:50",0.0,15.5,95.8,1011.4,330.0,0.7,1.2,337.0,0.00,14.9,16.3,"17:49:28",1
"20/11/02","18:00",0.0,15.4,95.9,1011.4,300.2,0.6,1.0,335.5,0.00,14.8,16.6,"17:51:12",1
"20/11/02","18:10",0.0,15.3,95.9,1011.6,255.2,0.3,0.5,269.0,0.00,14.7,16.5,"18:02:32",1
"20/11/02","18:20",0.2,15.3,96.0,1011.6,260.5,0.0,0.3,247.9,0.00,14.7,16.2,"18:10:08",1
"20/11/02","18:30",0.0,15.4,96.0,1011.2,2.0,0.5,1.3,350.0,0.00,14.8,16.3,"18:29:12",1
"20/11/02","18:40",0.0,15.4,96.0,1011.6,334.5,0.8,1.2,355.6,0.00,14.8,16.3,"18:31:20",1
"20/11/02","18:50",0.0,15.3,96.1,1011.6,315.1,0.6,1.0,346.9,0.00,14.7,16.3,"18:41:28",1
"20/11/02","19:00",0.2,15.2,96.1,1011.4,288.6,0.6,0.9,320.6,0.00,14.6,16.3,"18:52:56",1
"20/11/02","19:10",0.0,15.2,96.2,1011.6,278.9,0.6,0.6,283.7,0.00,14.6,16.4,"19:00:48",1
"20/11/02","19:20",0.0,15.3,96.2,1011.9,302.5,0.7,1.2,330.6,0.00,14.7,16.5,"19:14:56",1
"20/11/02","19:30",0.0,15.3,96.2,1011.6,323.3,0.7,1.2,305.1,0.00,14.7,16.3,"19:22:40",1
"20/11/02","19:40",0.2,15.2,96.3,1011.6,282.3,0.5,0.9,307.3,0.00,14.7,16.2,"19:30:16",1
"20/11/02","19:50",0.2,15.2,96.3,1011.4,311.5,0.5,1.0,320.9,0.00,14.7,16.4,"19:42:32",1
"20/11/02","20:00",0.0,15.2,96.3,1011.9,284.0,0.6,1.0,318.4,0.00,14.7,16.3,"19:51:04",1
"20/11/02","20:10",0.0,15.1,96.4,1011.6,296.8,0.5,0.9,319.7,0.00,14.6,16.3,"20:02:00",1
"20/11/02","20:20",0.0,15.1,96.4,1011.6,297.0,0.1,0.5,313.7,0.00,14.6,16.4,"20:12:08",1
"20/11/02","20:30",0.2,15.1,96.4,1011.6,302.1,0.6,1.1,319.5,0.00,14.6,16.4,"20:25:20",1
"20/11/02","20:40",0.0,15.1,96.5,1011.9,274.3,0.6,0.8,287.8,0.00,14.6,16.3,"20:30:48",1
"20/11/02","20:50",0.0,15.2,96.5,1011.9,274.1,0.6,1.0,245.8,0.00,14.7,16.2,"20:43:52",1
"20/11/02","21:00",0.4,15.2,96.5,1011.9,309.6,0.7,1.1,330.3,0.00,14.7,16.2,"20:57:28",1
"20/11/02","21:10",0.6,15.2,96.5,1011.9,301.5,0.3,1.0,306.3,0.00,14.7,16.3,"21:00:16",1
"20/11/02","21:20",0.2,15.1,96.5,1011.6,283.2,0.2,0.9,304.9,0.00,14.6,16.2,"21:19:52",1
"20/11/02","21:30",0.2,15.1,96.6,1011.6,287.8,0.6,1.1,316.2,0.00,14.6,16.0,"21:27:12",1
"20/11/02","21:40",0.2,15.0,96.6,1011.6,309.5,0.7,1.1,333.2,0.00,14.5,16.2,"21:39:36",1
"20/11/02","21:50",0.2,15.0,96.7,1010.9,288.3,0.7,1.1,330.4,0.00,14.5,16.2,"21:40:16",1
"20/11/02","22:00",0.0,15.0,96.7,1011.2,283.2,0.7,1.3,317.0,0.00,14.5,16.1,"21:53:20",1
"20/11/02","22:10",0.0,14.9,96.7,1010.9,183.5,0.3,1.2,246.2,0.00,14.4,16.2,"22:00:48",1
"20/11/02","22:20",0.0,14.9,96.8,1011.2,254.0,0.6,1.3,239.7,0.00,14.4,15.9,"22:17:44",1
"20/11/02","22:30",0.4,14.9,96.9,1011.2,315.1,0.8,1.7,336.4,0.00,14.5,16.2,"22:28:00",1
"20/11/02","22:40",0.4,14.6,96.9,1010.4,329.5,1.1,2.4,324.3,0.00,14.2,16.1,"22:33:36",1
"20/11/02","22:50",0.6,14.3,97.0,1011.2,297.6,1.5,3.6,337.7,0.00,13.9,16.1,"22:49:46",1
"20/11/02","23:00",0.2,14.2,97.2,1010.9,322.4,1.6,2.7,333.4,0.00,13.8,16.0,"22:53:10",1
"20/11/02","23:10",0.4,14.2,97.2,1010.9,317.6,1.3,2.6,335.7,0.00,13.8,16.2,"23:07:04",1
"20/11/02","23:20",0.4,14.1,97.3,1011.2,321.0,1.5,2.5,328.4,0.00,13.7,16.2,"23:11:28",1
"20/11/02","23:30",0.4,13.8,97.4,1010.2,311.2,1.3,2.5,340.1,0.00,13.4,16.2,"23:21:32",1
"20/11/02","23:40",0.4,13.2,97.5,1010.9,307.9,1.7,4.0,323.5,0.00,12.9,16.0,"23:37:52",1
"20/11/02","23:50",0.0,13.0,97.6,1010.7,309.7,2.3,5.8,316.0,0.00,12.7,16.2,"23:40:56",1
"20/11/02","24:00",0.4,12.9,97.6,1010.2,304.4,1.8,3.5,326.1,0.00,12.6,15.9,"23:54:18",1
